TGW641 VTSM-WSSS

Flight info

Callsign TGW641
Flight time 1h 28m
Altitude 39000
Route RUMVA1A RUMVA Y95 IKOGA Y24 PASVA Y514 NUFFA DCT PIBAP/N0450F380 DCT PASPU DCT NYLON DCT POSUB DCT SANAT
Aircraft A20N/M-SDE2FGHIRWYZ/LB1

Departure

Time 2026-04-16 07:20
Airport Samui International Airport (VTSM)

Arrival

Time 2026-04-16 08:48
Airport Singapore Changi Airport (WSSS)
Time Latitude Longitude Altitude Speed Heading
2026-04-16 06:48 9.55081 100.06343 66 ft 0 kts 83°
2026-04-16 07:12 9.55081 100.06339 66 ft 2 kts 83°
2026-04-16 07:12 9.55078 100.06323 58 ft 2 kts 79°
2026-04-16 07:13 9.55073 100.06307 59 ft 2 kts
2026-04-16 07:13 9.55065 100.06306 60 ft 0 kts 355°
2026-04-16 07:13 9.55066 100.06306 60 ft 0 kts 355°
2026-04-16 07:16 9.55075 100.06305 57 ft 4 kts 355°
2026-04-16 07:16 9.55117 100.06265 57 ft 8 kts 273°
2026-04-16 07:17 9.55129 100.06222 61 ft 10 kts 319°
2026-04-16 07:17 9.55211 100.06207 59 ft 14 kts 356°
2026-04-16 07:17 9.55323 100.06199 56 ft 18 kts 354°
2026-04-16 07:17 9.55416 100.06187 58 ft 11 kts 352°
2026-04-16 07:18 9.55482 100.06181 57 ft 10 kts 356°
2026-04-16 07:18 9.55553 100.06174 54 ft 8 kts 352°
2026-04-16 07:18 9.55617 100.06181 59 ft 11 kts 16°
2026-04-16 07:18 9.55677 100.06189 55 ft 6 kts 358°
2026-04-16 07:19 9.55706 100.06163 58 ft 5 kts 260°
2026-04-16 07:19 9.55680 100.06155 57 ft 4 kts 170°
2026-04-16 07:19 9.55654 100.06162 56 ft 0 kts 169°
2026-04-16 07:19 9.55576 100.06173 53 ft 42 kts 175°
2026-04-16 07:20 9.55034 100.06228 58 ft 111 kts 174°
2026-04-16 07:20 9.54113 100.06326 233 ft 144 kts 174°
2026-04-16 07:20 9.53124 100.06506 962 ft 148 kts 162°
2026-04-16 07:20 9.52160 100.06866 1569 ft 150 kts 155°
2026-04-16 07:21 9.51187 100.07298 2098 ft 160 kts 155°
2026-04-16 07:21 9.50100 100.07772 2518 ft 180 kts 155°
2026-04-16 07:21 9.48881 100.08271 3006 ft 199 kts 158°
2026-04-16 07:21 9.47511 100.08805 3414 ft 223 kts 159°
2026-04-16 07:22 9.46115 100.09521 4216 ft 225 kts 144°
2026-04-16 07:22 9.44945 100.10559 5133 ft 225 kts 134°
2026-04-16 07:22 9.43796 100.11724 5701 ft 245 kts 134°
2026-04-16 07:22 9.42510 100.13014 5922 ft 271 kts 134°
2026-04-16 07:23 9.41150 100.14372 5987 ft 275 kts 135°
2026-04-16 07:23 9.39802 100.15713 5987 ft 275 kts 134°
2026-04-16 07:23 9.38439 100.17069 5984 ft 274 kts 135°
2026-04-16 07:23 9.37078 100.18423 5980 ft 274 kts 134°
2026-04-16 07:24 9.35718 100.19776 5977 ft 274 kts 134°
2026-04-16 07:24 9.34359 100.21128 5977 ft 274 kts 135°
2026-04-16 07:24 9.32999 100.22482 5973 ft 275 kts 135°
2026-04-16 07:24 9.31635 100.23840 5970 ft 275 kts 134°
2026-04-16 07:25 9.30270 100.25199 5962 ft 275 kts 134°
2026-04-16 07:25 9.28902 100.26551 5961 ft 275 kts 137°
2026-04-16 07:25 9.27401 100.27770 6111 ft 278 kts 141°
2026-04-16 07:25 9.25863 100.28975 6724 ft 280 kts 141°
2026-04-16 07:26 9.24333 100.30182 7671 ft 279 kts 141°
2026-04-16 07:26 9.22792 100.31401 8502 ft 283 kts 141°
2026-04-16 07:26 9.21231 100.32636 9351 ft 286 kts 141°
2026-04-16 07:26 9.19649 100.33886 10141 ft 291 kts 141°
2026-04-16 07:27 9.18003 100.35187 10491 ft 312 kts 141°
2026-04-16 07:27 9.16226 100.36590 10702 ft 335 kts 141°
2026-04-16 07:27 9.14353 100.38069 11213 ft 345 kts 141°
2026-04-16 07:27 9.12449 100.39571 11922 ft 349 kts 141°
2026-04-16 07:28 9.10520 100.41093 12635 ft 353 kts 141°
2026-04-16 07:28 9.08561 100.42637 13325 ft 359 kts 141°
2026-04-16 07:28 9.06574 100.44206 13961 ft 364 kts 141°
2026-04-16 07:28 9.04576 100.45782 14648 ft 365 kts 141°
2026-04-16 07:29 9.02562 100.47370 15294 ft 368 kts 141°
2026-04-16 07:29 9.00533 100.48970 15923 ft 372 kts 141°
2026-04-16 07:29 8.98485 100.50585 16534 ft 375 kts 141°
2026-04-16 07:29 8.96444 100.52194 17144 ft 378 kts 141°
2026-04-16 07:30 8.94360 100.53837 17739 ft 382 kts 141°
2026-04-16 07:30 8.92257 100.55495 18302 ft 385 kts 141°
2026-04-16 07:30 8.90135 100.57167 18793 ft 388 kts 141°
2026-04-16 07:30 8.87999 100.58848 19301 ft 391 kts 142°
2026-04-16 07:31 8.85840 100.60544 19796 ft 394 kts 142°
2026-04-16 07:31 8.83666 100.62249 20282 ft 397 kts 142°
2026-04-16 07:31 8.81474 100.63968 20762 ft 401 kts 142°
2026-04-16 07:31 8.79259 100.65706 21196 ft 405 kts 142°
2026-04-16 07:32 8.77022 100.67460 21669 ft 408 kts 142°
2026-04-16 07:32 8.74767 100.69229 22120 ft 412 kts 142°
2026-04-16 07:32 8.72491 100.71015 22577 ft 416 kts 142°
2026-04-16 07:32 8.70197 100.72814 22997 ft 420 kts 143°
2026-04-16 07:33 8.67880 100.74632 23426 ft 423 kts 143°
2026-04-16 07:33 8.65544 100.76464 23811 ft 426 kts 143°
2026-04-16 07:33 8.63195 100.78305 24215 ft 428 kts 143°
2026-04-16 07:33 8.60833 100.80156 24606 ft 430 kts 143°
2026-04-16 07:34 8.58468 100.82009 24979 ft 432 kts 143°
2026-04-16 07:34 8.56107 100.83859 25368 ft 434 kts 143°
2026-04-16 07:34 8.53712 100.85734 25728 ft 436 kts 143°
2026-04-16 07:34 8.51301 100.87623 26088 ft 439 kts 143°
2026-04-16 07:35 8.48880 100.89519 26444 ft 441 kts 143°
2026-04-16 07:35 8.46446 100.91425 26804 ft 443 kts 143°
2026-04-16 07:35 8.44003 100.93338 27145 ft 445 kts 143°
2026-04-16 07:35 8.41549 100.95259 27483 ft 447 kts 143°
2026-04-16 07:36 8.39089 100.97186 27804 ft 449 kts 143°
2026-04-16 07:36 8.36613 100.99125 28138 ft 451 kts 143°
2026-04-16 07:36 8.34160 101.01046 28447 ft 453 kts 143°
2026-04-16 07:36 8.31663 101.03000 28759 ft 455 kts 143°
2026-04-16 07:37 8.29156 101.04962 29063 ft 457 kts 143°
2026-04-16 07:37 8.26637 101.06933 29360 ft 459 kts 143°
2026-04-16 07:37 8.24095 101.08922 29661 ft 461 kts 143°
2026-04-16 07:37 8.21554 101.10910 29952 ft 463 kts 143°
2026-04-16 07:38 8.19001 101.12906 30207 ft 465 kts 143°
2026-04-16 07:38 8.16440 101.14909 30484 ft 467 kts 143°
2026-04-16 07:38 8.13866 101.16921 30757 ft 468 kts 143°
2026-04-16 07:38 8.11285 101.18938 31055 ft 469 kts 143°
2026-04-16 07:39 8.08706 101.20955 31424 ft 468 kts 143°
2026-04-16 07:39 8.06134 101.22965 31722 ft 467 kts 143°
2026-04-16 07:39 8.03569 101.24969 31823 ft 466 kts 143°
2026-04-16 07:40 7.98446 101.28970 31838 ft 465 kts 143°
2026-04-16 07:40 7.93328 101.32967 31839 ft 465 kts 143°
2026-04-16 07:41 7.88208 101.36963 31837 ft 466 kts 143°
2026-04-16 07:41 7.83071 101.40972 32087 ft 468 kts 143°
2026-04-16 07:41 7.80500 101.42977 32469 ft 466 kts 143°
2026-04-16 07:42 7.77964 101.44956 32828 ft 465 kts 143°
2026-04-16 07:42 7.75406 101.46950 33178 ft 464 kts 143°
2026-04-16 07:42 7.72859 101.48936 33522 ft 463 kts 143°
2026-04-16 07:42 7.70309 101.50924 33833 ft 462 kts 143°
2026-04-16 07:43 7.67719 101.52835 34116 ft 461 kts 148°
2026-04-16 07:43 7.64957 101.54471 34375 ft 460 kts 153°
2026-04-16 07:43 7.62057 101.55806 34637 ft 459 kts 159°
2026-04-16 07:43 7.59067 101.56934 34885 ft 458 kts 160°
2026-04-16 07:44 7.56089 101.58061 35137 ft 457 kts 160°
2026-04-16 07:44 7.53115 101.59193 35393 ft 457 kts 160°
2026-04-16 07:44 7.50146 101.60325 35656 ft 456 kts 160°
2026-04-16 07:44 7.47178 101.61456 35908 ft 455 kts 160°
2026-04-16 07:45 7.44221 101.62583 36174 ft 455 kts 160°
2026-04-16 07:45 7.41262 101.63709 36434 ft 454 kts 160°
2026-04-16 07:45 7.38314 101.64831 36671 ft 453 kts 160°
2026-04-16 07:45 7.35366 101.65952 36908 ft 452 kts 160°
2026-04-16 07:46 7.32421 101.67073 37148 ft 452 kts 160°
2026-04-16 07:46 7.29487 101.68188 37379 ft 451 kts 160°
2026-04-16 07:46 7.26553 101.69304 37604 ft 450 kts 160°
2026-04-16 07:46 7.23626 101.70417 37831 ft 449 kts 160°
2026-04-16 07:47 7.20708 101.71527 38049 ft 448 kts 160°
2026-04-16 07:47 7.17814 101.72627 38270 ft 447 kts 160°
2026-04-16 07:47 7.14906 101.73732 38451 ft 447 kts 160°
2026-04-16 07:47 7.11996 101.74838 38627 ft 446 kts 160°
2026-04-16 07:48 7.09094 101.75941 38776 ft 445 kts 160°
2026-04-16 07:48 7.03305 101.78140 38824 ft 444 kts 160°
2026-04-16 07:49 6.97532 101.80332 38822 ft 443 kts 160°
2026-04-16 07:49 6.91758 101.82525 38826 ft 443 kts 160°
2026-04-16 07:50 6.85996 101.84712 38823 ft 443 kts 160°
2026-04-16 07:50 6.80229 101.86900 38830 ft 443 kts 160°
2026-04-16 07:51 6.74468 101.89086 38838 ft 442 kts 160°
2026-04-16 07:51 6.68750 101.91255 38839 ft 442 kts 160°
2026-04-16 07:52 6.62999 101.93436 38842 ft 442 kts 160°
2026-04-16 07:52 6.57255 101.95613 38844 ft 441 kts 160°
2026-04-16 07:53 6.51510 101.97791 38840 ft 441 kts 160°
2026-04-16 07:53 6.45764 101.99968 38835 ft 441 kts 160°
2026-04-16 07:54 6.40029 102.02140 38831 ft 440 kts 160°
2026-04-16 07:54 6.34292 102.04313 38828 ft 441 kts 160°
2026-04-16 07:55 6.28562 102.06483 38835 ft 441 kts 160°
2026-04-16 07:55 6.22806 102.08598 38837 ft 439 kts 162°
2026-04-16 07:56 6.16993 102.10468 38840 ft 439 kts 162°
2026-04-16 07:56 6.11174 102.12345 38842 ft 439 kts 162°
2026-04-16 07:57 6.05363 102.14250 38842 ft 440 kts 162°
2026-04-16 07:57 5.99541 102.16164 38834 ft 440 kts 162°
2026-04-16 07:58 5.93722 102.18078 38831 ft 440 kts 162°
2026-04-16 07:58 5.87899 102.19991 38824 ft 440 kts 162°
2026-04-16 07:59 5.82073 102.21905 38813 ft 441 kts 162°
2026-04-16 07:59 5.76249 102.23819 38809 ft 440 kts 161°
2026-04-16 08:00 5.70517 102.25990 38813 ft 441 kts 158°
2026-04-16 08:00 5.64817 102.28274 38814 ft 441 kts 158°
2026-04-16 08:01 5.59115 102.30553 38816 ft 441 kts 158°
2026-04-16 08:01 5.53446 102.32818 38820 ft 442 kts 158°
2026-04-16 08:02 5.47736 102.35100 38825 ft 442 kts 158°
2026-04-16 08:02 5.39167 102.38523 38817 ft 441 kts 158°
2026-04-16 08:03 5.34403 102.40427 38820 ft 439 kts 158°
2026-04-16 08:03 5.28760 102.42680 38818 ft 439 kts 158°
2026-04-16 08:04 5.23082 102.44947 38818 ft 439 kts 158°
2026-04-16 08:04 5.17408 102.47213 38821 ft 438 kts 158°
2026-04-16 08:05 5.11740 102.49475 38823 ft 438 kts 158°
2026-04-16 08:05 5.06081 102.51733 38820 ft 438 kts 158°
2026-04-16 08:06 5.00420 102.53991 38828 ft 437 kts 158°
2026-04-16 08:06 4.94802 102.56232 38826 ft 437 kts 158°
2026-04-16 08:07 4.89149 102.58487 38821 ft 436 kts 158°
2026-04-16 08:07 4.83512 102.60735 38821 ft 436 kts 158°
2026-04-16 08:08 4.77873 102.62983 38820 ft 435 kts 158°
2026-04-16 08:08 4.72247 102.65226 38817 ft 435 kts 158°
2026-04-16 08:09 4.66622 102.67468 38823 ft 435 kts 158°
2026-04-16 08:09 4.61007 102.69706 38822 ft 434 kts 158°
2026-04-16 08:10 4.55388 102.71945 38823 ft 434 kts 158°
2026-04-16 08:10 4.49761 102.74187 38826 ft 434 kts 158°
2026-04-16 08:11 4.44180 102.76411 38825 ft 435 kts 158°
2026-04-16 08:11 4.38559 102.78650 38824 ft 435 kts 158°
2026-04-16 08:12 4.32943 102.80886 38826 ft 435 kts 158°
2026-04-16 08:12 4.27322 102.83124 38824 ft 435 kts 158°
2026-04-16 08:13 4.21706 102.85359 38831 ft 435 kts 158°
2026-04-16 08:13 4.16155 102.87568 38836 ft 435 kts 159°
2026-04-16 08:14 4.10527 102.89807 38837 ft 435 kts 159°
2026-04-16 08:14 4.04897 102.92047 38833 ft 435 kts 159°
2026-04-16 08:15 3.99263 102.94288 38829 ft 436 kts 159°
2026-04-16 08:15 3.93626 102.96530 38822 ft 436 kts 159°
2026-04-16 08:16 3.87976 102.98777 38812 ft 437 kts 159°
2026-04-16 08:16 3.82329 103.01022 38806 ft 437 kts 159°
2026-04-16 08:17 3.76668 103.03273 38806 ft 438 kts 158°
2026-04-16 08:17 3.70997 103.05527 38800 ft 439 kts 158°
2026-04-16 08:19 3.48197 103.14587 38809 ft 444 kts 158°
2026-04-16 08:20 3.42440 103.16873 38810 ft 445 kts 158°
2026-04-16 08:20 3.36659 103.19168 38812 ft 446 kts 158°
2026-04-16 08:21 3.31032 103.21812 38813 ft 447 kts 148°
2026-04-16 08:21 3.26042 103.25523 38814 ft 447 kts 136°
2026-04-16 08:22 3.21747 103.29975 38751 ft 448 kts 133°
2026-04-16 08:22 3.19611 103.32242 38525 ft 448 kts 133°
2026-04-16 08:22 3.17471 103.34506 38272 ft 448 kts 133°
2026-04-16 08:23 3.15325 103.36778 38005 ft 447 kts 133°
2026-04-16 08:23 3.13181 103.39048 37739 ft 446 kts 133°
2026-04-16 08:23 3.11113 103.41238 37490 ft 447 kts 133°
2026-04-16 08:23 3.08975 103.43504 37152 ft 448 kts 133°
2026-04-16 08:24 3.06819 103.45789 36486 ft 452 kts 133°
2026-04-16 08:24 3.04643 103.48095 35608 ft 456 kts 133°
2026-04-16 08:24 3.02474 103.50393 34879 ft 451 kts 133°
2026-04-16 08:24 3.00325 103.52670 34102 ft 449 kts 133°
2026-04-16 08:25 2.98188 103.54933 33214 ft 447 kts 133°
2026-04-16 08:25 2.96068 103.57179 32533 ft 440 kts 133°
2026-04-16 08:25 2.93967 103.59403 31722 ft 438 kts 133°
2026-04-16 08:25 2.91884 103.61609 30921 ft 439 kts 133°
2026-04-16 08:26 2.89787 103.63832 30380 ft 441 kts 132°
2026-04-16 08:26 2.87757 103.66198 29918 ft 453 kts 129°
2026-04-16 08:26 2.85752 103.68598 29330 ft 456 kts 130°
2026-04-16 08:26 2.83707 103.71042 28587 ft 458 kts 130°
2026-04-16 08:27 2.81673 103.73472 28014 ft 453 kts 130°
2026-04-16 08:27 2.79673 103.75860 27415 ft 448 kts 130°
2026-04-16 08:27 2.77684 103.78233 26820 ft 443 kts 130°
2026-04-16 08:27 2.75711 103.80587 26176 ft 440 kts 130°
2026-04-16 08:28 2.73754 103.82922 25599 ft 436 kts 130°
2026-04-16 08:28 2.71813 103.85239 25029 ft 432 kts 130°
2026-04-16 08:28 2.69884 103.87541 24438 ft 430 kts 130°
2026-04-16 08:28 2.67966 103.89829 23847 ft 428 kts 130°
2026-04-16 08:29 2.66054 103.92111 23204 ft 427 kts 130°
2026-04-16 08:29 2.64158 103.94373 22618 ft 422 kts 130°
2026-04-16 08:29 2.62277 103.96616 22034 ft 418 kts 130°
2026-04-16 08:29 2.60419 103.98832 21445 ft 415 kts 130°
2026-04-16 08:30 2.58578 104.01028 21003 ft 407 kts 130°
2026-04-16 08:30 2.56772 104.03181 20857 ft 404 kts 130°
2026-04-16 08:30 2.54954 104.05349 20831 ft 409 kts 130°
2026-04-16 08:30 2.53317 104.07301 20831 ft 409 kts 130°
2026-04-16 08:31 2.51391 104.09387 20835 ft 408 kts 140°
2026-04-16 08:31 2.49023 104.10942 20774 ft 409 kts 155°
2026-04-16 08:31 2.46392 104.11844 20235 ft 406 kts 169°
2026-04-16 08:31 2.43583 104.12033 19513 ft 403 kts 186°
2026-04-16 08:32 2.40846 104.11567 19087 ft 396 kts 192°
2026-04-16 08:32 2.38146 104.11054 18578 ft 393 kts 189°
2026-04-16 08:32 2.35451 104.10719 18063 ft 390 kts 185°
2026-04-16 08:32 2.32754 104.10555 17576 ft 386 kts 182°
2026-04-16 08:33 2.30071 104.10493 17087 ft 385 kts 181°
2026-04-16 08:33 2.27407 104.10479 16602 ft 381 kts 180°
2026-04-16 08:33 2.24764 104.10483 16116 ft 379 kts 180°
2026-04-16 08:33 2.22135 104.10490 15640 ft 377 kts 180°
2026-04-16 08:34 2.19527 104.10495 15161 ft 373 kts 180°
2026-04-16 08:34 2.16938 104.10497 14693 ft 372 kts 180°
2026-04-16 08:34 2.14351 104.10498 14213 ft 370 kts 180°
2026-04-16 08:34 2.11783 104.10499 13733 ft 368 kts 180°
2026-04-16 08:35 2.09270 104.10499 13253 ft 364 kts 180°
2026-04-16 08:35 2.06757 104.10499 12796 ft 360 kts 180°
2026-04-16 08:35 2.04222 104.10499 12368 ft 358 kts 180°
2026-04-16 08:35 2.02581 104.10499 12162 ft 356 kts 180°
2026-04-16 08:36 1.99306 104.10499 11574 ft 354 kts 180°
2026-04-16 08:36 1.96859 104.10502 11122 ft 349 kts 180°
2026-04-16 08:36 1.94441 104.10513 10691 ft 345 kts 180°
2026-04-16 08:36 1.92045 104.10526 10244 ft 343 kts 180°
2026-04-16 08:37 1.89669 104.10538 9936 ft 337 kts 180°
2026-04-16 08:37 1.87375 104.10550 9786 ft 320 kts 180°
2026-04-16 08:37 1.85218 104.10560 9612 ft 300 kts 180°
2026-04-16 08:37 1.83196 104.10569 9455 ft 282 kts 180°
2026-04-16 08:38 1.81320 104.10799 9268 ft 264 kts 159°
2026-04-16 08:38 1.79806 104.11730 9076 ft 251 kts 143°
2026-04-16 08:38 1.78393 104.12734 8864 ft 244 kts 151°
2026-04-16 08:38 1.76833 104.13168 8679 ft 229 kts 180°
2026-04-16 08:39 1.75260 104.13112 8444 ft 224 kts 183°
2026-04-16 08:39 1.73722 104.13029 8241 ft 217 kts 184°
2026-04-16 08:39 1.72279 104.12772 8026 ft 209 kts 194°
2026-04-16 08:39 1.70819 104.12487 7689 ft 216 kts 188°
2026-04-16 08:40 1.69355 104.12202 7232 ft 213 kts 195°
2026-04-16 08:40 1.67962 104.11747 6798 ft 209 kts 200°
2026-04-16 08:40 1.66625 104.11203 6363 ft 205 kts 202°
2026-04-16 08:40 1.65399 104.10681 5955 ft 202 kts 202°
2026-04-16 08:41 1.64113 104.10135 5549 ft 200 kts 202°
2026-04-16 08:41 1.62847 104.09599 5236 ft 195 kts 203°
2026-04-16 08:41 1.61631 104.09082 4953 ft 191 kts 203°
2026-04-16 08:41 1.60408 104.08563 4692 ft 193 kts 202°
2026-04-16 08:42 1.59173 104.08038 4427 ft 191 kts 202°
2026-04-16 08:42 1.57968 104.07527 4161 ft 186 kts 203°
2026-04-16 08:42 1.56775 104.07021 3917 ft 188 kts 202°
2026-04-16 08:42 1.55572 104.06510 3668 ft 187 kts 202°
2026-04-16 08:43 1.54375 104.06002 3424 ft 187 kts 202°
2026-04-16 08:43 1.53207 104.05506 3184 ft 175 kts 202°
2026-04-16 08:43 1.52153 104.05059 2988 ft 155 kts 201°
2026-04-16 08:43 1.51213 104.04660 2782 ft 140 kts 201°
2026-04-16 08:44 1.50309 104.04280 2580 ft 142 kts 201°
2026-04-16 08:44 1.49417 104.03900 2338 ft 138 kts 201°
2026-04-16 08:44 1.48546 104.03521 2144 ft 134 kts 200°
2026-04-16 08:44 1.47691 104.03172 1953 ft 132 kts 199°
2026-04-16 08:45 1.46852 104.02817 1786 ft 130 kts 200°
2026-04-16 08:45 1.45985 104.02451 1680 ft 136 kts 200°
2026-04-16 08:45 1.45117 104.02072 1555 ft 135 kts 201°
2026-04-16 08:45 1.44270 104.01698 1406 ft 133 kts 200°
2026-04-16 08:46 1.43415 104.01348 1184 ft 133 kts 199°
2026-04-16 08:46 1.42546 104.01005 997 ft 132 kts 198°
2026-04-16 08:46 1.41697 104.00672 859 ft 127 kts 199°
2026-04-16 08:46 1.40852 104.00319 651 ft 136 kts 201°
2026-04-16 08:47 1.40211 104.00053 623 ft 130 kts 199°
2026-04-16 08:47 1.39379 103.99671 409 ft 132 kts 201°
2026-04-16 08:48 1.38539 103.99282 235 ft 134 kts 197°
2026-04-16 08:48 1.37672 103.98913 90 ft 133 kts 196°
2026-04-16 08:48 1.36863 103.98589 32 ft 114 kts 200°
2026-04-16 08:48 1.36343 103.98367 31 ft 39 kts 204°
2026-04-16 08:49 1.36159 103.98291 31 ft 20 kts 195°
2026-04-16 08:49 1.36028 103.98279 31 ft 12 kts 177°
2026-04-16 08:49 1.35947 103.98289 32 ft 12 kts 154°
2026-04-16 08:49 1.35926 103.98359 32 ft 10 kts 63°
2026-04-16 08:50 1.35967 103.98391 32 ft 5 kts 28°
2026-04-16 08:50 1.35972 103.98394 32 ft 1 kts 27°
2026-04-16 08:50 1.36004 103.98409 32 ft 8 kts 24°
2026-04-16 08:50 1.36068 103.98436 31 ft 12 kts 22°
2026-04-16 08:51 1.36154 103.98471 33 ft 15 kts 22°
2026-04-16 08:51 1.36258 103.98515 32 ft 18 kts 23°
2026-04-16 08:51 1.36423 103.98583 32 ft 20 kts 22°
2026-04-16 08:51 1.36556 103.98640 32 ft 22 kts 24°
2026-04-16 08:52 1.36654 103.98681 32 ft 21 kts 22°
2026-04-16 08:52 1.36761 103.98726 32 ft 10 kts 25°
2026-04-16 08:52 1.36825 103.98768 32 ft 9 kts 61°
2026-04-16 08:52 1.36812 103.98835 31 ft 11 kts 114°
2026-04-16 08:53 1.36777 103.98917 32 ft 14 kts 114°
2026-04-16 08:53 1.36736 103.99015 31 ft 16 kts 112°
2026-04-16 08:53 1.36689 103.99126 32 ft 19 kts 113°
2026-04-16 08:53 1.36636 103.99252 32 ft 21 kts 112°
2026-04-16 08:54 1.36578 103.99384 31 ft 17 kts 113°
2026-04-16 08:54 1.36534 103.99487 31 ft 16 kts 113°
2026-04-16 08:54 1.36503 103.99563 32 ft 9 kts 111°
2026-04-16 08:54 1.36452 103.99605 32 ft 11 kts 186°
2026-04-16 08:55 1.36376 103.99568 32 ft 10 kts 226°
2026-04-16 08:55 1.36331 103.99509 32 ft 12 kts 233°
2026-04-16 08:55 1.36283 103.99448 32 ft 6 kts 231°
2026-04-16 08:55 1.36267 103.99404 32 ft 8 kts 281°
2026-04-16 08:56 1.36302 103.99367 32 ft 1 kts 299°
2026-04-16 08:56 1.36313 103.99351 32 ft 0 kts 306°
2026-04-16 08:56 1.36313 103.99349 32 ft 0 kts 306°